[[{"header":{"parameterUnit":"m.s-1","parameterCategory":2,"la1":30.2992,"la2":30.254,"lo1":-89.0895,"lo2":-89.0443,"dy":0.0025,"dx":0.0025,"nx":19,"ny":19,"refTime":"2026-04-02T03:00:00:Z","depth":"0","parameterNumber":2,"parameterNumberName":"U-component_of_CURRENTS"},"data":[0,0,0,0.1151,0.1153,0.1223,0.1223,0.1345,0.1346,0,0,0,0,0,0,0,0,0,0,0,0.1125,0.1125,0.1151,0.1153,0.1222,0.1223,0.1345,0.1346,0,0,0,0,0,0,0,0,0,0,0,0.1125,0.1125,0.1126,0.1153,0.1222,0.1223,0.1344,0.1284,0,0,0,0,0,0,0,0,0,0,0.1213,0.1182,0.1125,0.1126,0.1154,0.1222,0.1223,0.1281,0.1288,0.1322,0,0.1331,0,0.1343,0.1355,0.1355,0,0,0,0.1155,0.1176,0.1196,0.1126,0.1154,0.1222,0.1192,0.1285,0.1293,0.1331,0.1332,0.1337,0.1345,0.1355,0.1356,0.1511,0.1512,0,0,0.1151,0.1139,0.119,0.1201,0.1171,0.1189,0.1194,0.1289,0.1297,0.1333,0.134,0.1347,0.1356,0.1357,0.151,0.1511,0,0,0,0.1139,0.1137,0.1154,0.1196,0.1207,0.1191,0.1197,0.1293,0.1299,0.1341,0.1348,0.1357,0.1359,0.151,0.1511,0.1508,0,0,0,0.1137,0.1129,0.1152,0.1146,0.1205,0.1246,0.1198,0.1292,0.1303,0.1348,0.1357,0.136,0.1509,0.151,0.1507,0.1468,0,0,0,0.1122,0.1128,0.1135,0.1145,0.1175,0.1245,0.1256,0.1294,0.1308,0.1355,0.136,0.1508,0.151,0.1505,0.1468,0.1465,0,0,0,0.1109,0.1116,0.1135,0.1154,0.1174,0.1237,0.1256,0.1312,0.1354,0.1358,0.1509,0.1511,0.1505,0.1467,0.1465,0.128,0.1266,0,0,0.1108,0.1115,0.1128,0.1147,0.1197,0.1227,0.1297,0.1357,0.1393,0.1478,0.1482,0.1507,0.1467,0.1465,0.1379,0.1362,0,0,0,0.1122,0.1129,0.115,0.1183,0.1234,0.1292,0.1354,0.1392,0.1475,0.1426,0.1543,0.1518,0.1516,0.1406,0.1394,0.1151,0.1519,0.1518,0.1518,0.1104,0.1134,0.116,0.1209,0.1257,0.1348,0.14,0.147,0.1505,0.1551,0.1544,0.1574,0.146,0.1448,0.1202,0.1597,0.1597,0.1597,0.1597,0.1093,0.1102,0.1156,0.1183,0.1262,0.1325,0.1448,0.149,0.1563,0.1584,0.1583,0.1443,0.1433,0.1176,0.1598,0.1598,0.1597,0.1597,0.1597,0.1065,0.1072,0.1089,0.1134,0.1203,0.1301,0.1365,0.1458,0.1535,0.1555,0.143,0.1427,0.1173,0.1557,0.1557,0.1556,0.1556,0.1556,0.1556,0.1018,0.104,0.1041,0.1089,0.1119,0.1187,0.1311,0.1353,0.137,0.1389,0.1388,0.114,0.1561,0.153,0.1554,0.1554,0.1555,0.1555,0.1555,0.0984,0.0984,0.098,0.0994,0.1053,0.1047,0.1162,0.1145,0.1196,0.1154,0.0898,0.131,0.1282,0.129,0.1253,0.1204,0.1204,0.1204,0.1204,0.0955,0.0957,0.0936,0.0939,0.0964,0.0991,0.0888,0.0855,0.0724,0.0579,0.062,0.0556,0.0581,0.051,0.0536,0.0484,0.024,0.0239,0.0238,0.0939,0.0932,0.0905,0.0899,0.0919,0.0893,0.0715,0.0478,0.0224,0.0182,0.0318,0.0359,0.0255,0.0314,0.0203,0.0258,0.0175,0,0]},{"header":{"parameterUnit":"m.s-1","parameterCategory":2,"la1":30.2992,"la2":30.254,"lo1":-89.0895,"lo2":-89.0443,"dy":0.0025,"dx":0.0025,"nx":19,"ny":19,"refTime":"2026-04-02T03:00:00:Z","depth":"0","parameterNumber":3,"parameterNumberName":"V-component_of_CURRENTS"},"data":[0,0,0,0.0066,0.0066,0.0047,0.0047,0.0072,0.0072,0,0,0,0,0,0,0,0,0,0,0,0.008,0.008,0.0066,0.0066,0.0047,0.0047,0.0072,0.0072,0,0,0,0,0,0,0,0,0,0,0,0.008,0.008,0.008,0.0066,0.0047,0.0047,0.0071,0.0075,0,0,0,0,0,0,0,0,0,0,0.0088,0.0092,0.008,0.008,0.0066,0.0047,0.0047,0.0075,0.0075,0.0093,0,0.009,0,0.0077,0.0074,0.0074,0,0,0,0.0071,0.0092,0.0084,0.008,0.0065,0.0047,0.0057,0.0074,0.0075,0.0093,0.009,0.009,0.0078,0.0074,0.0075,0.0156,0.0156,0,0,0.0072,0.008,0.0084,0.0084,0.0061,0.0057,0.0056,0.0074,0.0077,0.009,0.0091,0.0078,0.0075,0.0075,0.0155,0.0156,0,0,0,0.0072,0.0081,0.0072,0.0084,0.0074,0.0057,0.0055,0.0077,0.0073,0.0091,0.0079,0.0075,0.0075,0.0154,0.0155,0.0226,0,0,0,0.0072,0.008,0.0072,0.0077,0.0073,0.0068,0.0058,0.0072,0.0073,0.0078,0.0075,0.0076,0.0154,0.0155,0.0222,0.0257,0,0,0,0.0081,0.0081,0.0078,0.0078,0.0066,0.0067,0.0064,0.0072,0.0066,0.0074,0.0076,0.0153,0.0155,0.0219,0.0252,0.031,0,0,0,0.009,0.0093,0.0078,0.0086,0.0066,0.0078,0.0064,0.0074,0.0083,0.0075,0.0154,0.0155,0.0218,0.0248,0.0306,0.0334,0.0353,0,0,0.01,0.0095,0.0101,0.0087,0.0106,0.0081,0.0127,0.0129,0.0115,0.0151,0.0152,0.0224,0.0251,0.0309,0.042,0.0436,0,0,0,0.0108,0.0113,0.0117,0.0124,0.0126,0.0157,0.0148,0.0169,0.0207,0.0125,0.0234,0.025,0.0284,0.0293,0.0307,0.0321,0.0162,0.0162,0.0162,0.0133,0.0136,0.0158,0.0169,0.0186,0.0214,0.0256,0.0285,0.0255,0.0292,0.0315,0.0418,0.0429,0.0439,0.0455,0.0322,0.0322,0.0322,0.0322,0.016,0.0176,0.0196,0.0217,0.0255,0.0294,0.0367,0.0376,0.0456,0.0403,0.0433,0.0377,0.0458,0.0469,0.0327,0.0326,0.0326,0.0325,0.0325,0.0182,0.0191,0.0203,0.0246,0.0307,0.0351,0.046,0.0498,0.0518,0.0562,0.0559,0.0558,0.0561,0.0569,0.057,0.057,0.057,0.0571,0.0571,0.0196,0.021,0.0236,0.0279,0.0319,0.0401,0.0515,0.0585,0.0648,0.0648,0.0648,0.0608,0.0493,0.0475,0.0578,0.0576,0.0576,0.0575,0.0574,0.0217,0.0219,0.0259,0.0292,0.0387,0.0477,0.0581,0.0718,0.0781,0.0813,0.0775,0.0698,0.068,0.0668,0.0655,0.0798,0.0798,0.0798,0.0798,0.0229,0.0233,0.0283,0.034,0.0434,0.0518,0.0662,0.0771,0.0856,0.0883,0.0876,0.0824,0.0814,0.08,0.0785,0.0772,0.0942,0.0942,0.0942,0.0245,0.0257,0.0296,0.0345,0.0449,0.0561,0.0663,0.073,0.0866,0.0948,0.0898,0.0892,0.0811,0.0794,0.076,0.0738,0.0711,0,0]}],[{"header":{"parameterUnit":"m.s-1","parameterCategory":2,"la1":30.2992,"la2":30.254,"lo1":-89.0895,"lo2":-89.0443,"dy":0.0025,"dx":0.0025,"nx":19,"ny":19,"refTime":"2026-04-02T03:00:00:Z","depth":"2","parameterNumber":2,"parameterNumberName":"U-component_of_CURRENTS"},"data":[0,0,0,0.122,0.1221,0.1298,0.1298,0.1443,0.1444,0,0,0,0,0,0,0,0,0,0,0,0.1193,0.1194,0.122,0.1221,0.1298,0.1298,0.1442,0.1444,0,0,0,0,0,0,0,0,0,0,0,0.1193,0.1194,0.1194,0.1221,0.1298,0.1298,0.1442,0.1374,0,0,0,0,0,0,0,0,0,0,0.1295,0.1259,0.1193,0.1194,0.1222,0.1297,0.1298,0.1371,0.1379,0.1419,0,0.1427,0,0.1438,0.1454,0.1455,0,0,0,0.1228,0.1252,0.1275,0.1194,0.1222,0.1297,0.1265,0.1375,0.1384,0.143,0.1429,0.1435,0.1441,0.1455,0.1456,0.1612,0.1613,0,0,0.1223,0.121,0.1268,0.128,0.124,0.1262,0.1267,0.138,0.1388,0.143,0.1438,0.1443,0.1456,0.1457,0.1612,0.1613,0,0,0,0.1207,0.1207,0.1225,0.1274,0.1284,0.1265,0.127,0.1383,0.139,0.1439,0.1445,0.1457,0.1459,0.1611,0.1612,0.1608,0,0,0,0.1205,0.1197,0.1223,0.1216,0.1281,0.1328,0.1271,0.1382,0.1395,0.1444,0.1457,0.146,0.1611,0.1612,0.1606,0.157,0,0,0,0.119,0.1195,0.1203,0.1215,0.1245,0.1326,0.1339,0.1385,0.1398,0.1455,0.1461,0.161,0.1611,0.1605,0.1569,0.1566,0,0,0,0.1175,0.1183,0.1203,0.1223,0.1245,0.1318,0.1338,0.14,0.1449,0.1458,0.1611,0.1612,0.1605,0.1569,0.1566,0.1379,0.1364,0,0,0.1175,0.1183,0.1197,0.1216,0.1271,0.1308,0.1382,0.1447,0.1485,0.1577,0.158,0.1607,0.1569,0.1566,0.1459,0.1441,0,0,0,0.119,0.1197,0.1221,0.1257,0.1316,0.1377,0.1444,0.1482,0.1563,0.1519,0.1636,0.1613,0.161,0.1499,0.1486,0.1619,0.1618,0.1618,0.1618,0.1171,0.1203,0.1233,0.1285,0.134,0.1435,0.1489,0.1558,0.1595,0.1632,0.1632,0.1654,0.1538,0.1525,0.1678,0.1678,0.1678,0.1678,0.1678,0.116,0.1172,0.1228,0.126,0.1342,0.141,0.1534,0.1572,0.1643,0.1663,0.1663,0.1528,0.151,0.1679,0.1679,0.1678,0.1678,0.1678,0.1678,0.1132,0.1141,0.1159,0.1208,0.128,0.1381,0.1445,0.1537,0.1613,0.1632,0.1505,0.1503,0.1616,0.1632,0.1632,0.1632,0.1632,0.1632,0.1631,0.1086,0.1108,0.1109,0.1161,0.1193,0.1263,0.1388,0.143,0.1444,0.1462,0.1461,0.1638,0.1639,0.1614,0.1629,0.163,0.163,0.163,0.163,0.1053,0.1052,0.1047,0.1062,0.1124,0.1123,0.1238,0.1219,0.1268,0.1225,0.1375,0.1381,0.1355,0.1363,0.1332,0.1274,0.1274,0.1274,0.1274,0.1025,0.1026,0.1003,0.1006,0.1034,0.1067,0.0972,0.0941,0.0999,0.101,0.1022,0.0993,0.1012,0.0967,0.0985,0.0946,0.0787,0.0787,0.0786,0.1009,0.1001,0.0973,0.0967,0.099,0.097,0.0808,0.0625,0.0618,0.0773,0.1002,0.1228,0.1217,0.1235,0.1193,0.1211,0.116,0,0]},{"header":{"parameterUnit":"m.s-1","parameterCategory":2,"la1":30.2992,"la2":30.254,"lo1":-89.0895,"lo2":-89.0443,"dy":0.0025,"dx":0.0025,"nx":19,"ny":19,"refTime":"2026-04-02T03:00:00:Z","depth":"2","parameterNumber":3,"parameterNumberName":"V-component_of_CURRENTS"},"data":[0,0,0,0.0023,0.0022,0.0,0.0,0.0014,0.0015,0,0,0,0,0,0,0,0,0,0,0,0.0037,0.0037,0.0023,0.0022,0.0,0.0,0.0014,0.0015,0,0,0,0,0,0,0,0,0,0,0,0.0037,0.0037,0.0037,0.0022,0.0,0.0,0.0014,0.0021,0,0,0,0,0,0,0,0,0,0,0.0038,0.0044,0.0037,0.0037,0.0022,0.0,0.0,0.0021,0.0021,0.0036,0,0.0033,0,0.0021,0.0016,0.0016,0,0,0,0.0026,0.0044,0.0036,0.0037,0.0022,0.0,0.0011,0.0021,0.002,0.0035,0.0033,0.0033,0.0021,0.0016,0.0016,0.0099,0.0099,0,0,0.0027,0.0036,0.0036,0.0036,0.0018,0.0012,0.001,0.002,0.0023,0.0033,0.0033,0.0021,0.0016,0.0017,0.0098,0.0099,0,0,0,0.0028,0.0037,0.0028,0.0036,0.0026,0.0011,0.0009,0.0023,0.0019,0.0033,0.0021,0.0017,0.0017,0.0097,0.0098,0.0168,0,0,0,0.0029,0.0037,0.0028,0.0034,0.0026,0.0018,0.0012,0.0019,0.0019,0.0021,0.0017,0.0017,0.0096,0.0098,0.0165,0.0198,0,0,0,0.0038,0.0038,0.0035,0.0034,0.0022,0.0018,0.0014,0.0018,0.0012,0.0016,0.0017,0.0096,0.0097,0.0161,0.0193,0.0253,0,0,0,0.0048,0.0051,0.0036,0.0042,0.0022,0.0028,0.0014,0.002,0.0027,0.0017,0.0096,0.0098,0.016,0.0189,0.0249,0.0262,0.0281,0,0,0.0057,0.0052,0.0058,0.0043,0.0059,0.0031,0.0076,0.0075,0.0061,0.0095,0.0096,0.0166,0.0192,0.0252,0.0361,0.0377,0,0,0,0.0065,0.0069,0.0072,0.0077,0.0074,0.0105,0.0094,0.0115,0.0155,0.0071,0.0181,0.0196,0.0231,0.0232,0.0245,0.0106,0.0106,0.0106,0.0106,0.0091,0.0092,0.0111,0.012,0.0134,0.0162,0.0204,0.0235,0.0203,0.0244,0.0265,0.0373,0.0376,0.0385,0.0275,0.0276,0.0276,0.0276,0.0276,0.0117,0.0131,0.015,0.0168,0.0206,0.0244,0.0318,0.0329,0.0411,0.0358,0.0389,0.032,0.0403,0.0282,0.0281,0.028,0.028,0.0279,0.0279,0.0137,0.0146,0.0157,0.0198,0.026,0.0304,0.0414,0.0453,0.0474,0.0519,0.0507,0.0506,0.0413,0.0527,0.0527,0.0528,0.0528,0.0528,0.0529,0.0152,0.0165,0.0189,0.0232,0.0271,0.0355,0.047,0.054,0.0599,0.0595,0.0595,0.0458,0.045,0.0428,0.0535,0.0534,0.0533,0.0533,0.0532,0.0171,0.0174,0.0211,0.0244,0.0338,0.0423,0.0532,0.0665,0.0729,0.0757,0.0645,0.064,0.0621,0.0609,0.0592,0.0735,0.0735,0.0735,0.0735,0.0183,0.0187,0.0233,0.0288,0.0383,0.046,0.058,0.0639,0.0697,0.0682,0.0684,0.0616,0.061,0.0584,0.0573,0.0552,0.0685,0.0685,0.0685,0.0198,0.0209,0.0244,0.0292,0.0396,0.0495,0.0546,0.0503,0.0546,0.0677,0.0618,0.0743,0.0645,0.0635,0.0591,0.0575,0.054,0,0]}],[{"header":{"parameterUnit":"m.s-1","parameterCategory":2,"la1":30.2992,"la2":30.254,"lo1":-89.0895,"lo2":-89.0443,"dy":0.0025,"dx":0.0025,"nx":19,"ny":19,"refTime":"2026-04-02T03:00:00:Z","depth":"4","parameterNumber":2,"parameterNumberName":"U-component_of_CURRENTS"},"data":[0,0,0,0.0736,0.0735,0.0705,0.0705,0.0734,0.0734,0,0,0,0,0,0,0,0,0,0,0,0.0761,0.0761,0.0736,0.0735,0.0705,0.0705,0.0734,0.0734,0,0,0,0,0,0,0,0,0,0,0,0.0761,0.0761,0.0761,0.0735,0.0705,0.0704,0.0734,0.0741,0,0,0,0,0,0,0,0,0,0,0.0763,0.0783,0.0761,0.0761,0.0735,0.0705,0.0704,0.0741,0.0741,0.0766,0,0.0766,0,0.0744,0.0737,0.0737,0,0,0,0.0741,0.0783,0.0763,0.0761,0.0735,0.0705,0.072,0.074,0.074,0.0766,0.0766,0.0766,0.0745,0.0738,0.0738,0.0779,0.0779,0,0,0.0742,0.0767,0.0762,0.0763,0.0735,0.0721,0.0719,0.0739,0.0752,0.0766,0.0766,0.0745,0.0738,0.0738,0.0779,0.0779,0,0,0,0.0744,0.0769,0.0746,0.0763,0.0748,0.072,0.0718,0.0752,0.0741,0.0766,0.0746,0.0738,0.0739,0.0779,0.0779,0.0787,0,0,0,0.0745,0.0768,0.0747,0.0764,0.0747,0.0741,0.073,0.074,0.074,0.0746,0.0738,0.0739,0.0779,0.0779,0.0786,0.0773,0,0,0,0.0761,0.077,0.0766,0.0765,0.0745,0.074,0.0731,0.0739,0.0728,0.0737,0.0739,0.0779,0.0779,0.0786,0.0773,0.0813,0,0,0,0.0787,0.0786,0.0767,0.0754,0.0746,0.0708,0.073,0.0723,0.0729,0.0738,0.0779,0.0779,0.0786,0.0773,0.0813,0.0674,0,0,0,0.0794,0.0788,0.0774,0.0755,0.0708,0.0713,0.0695,0.072,0.0744,0.0778,0.0778,0.0787,0.0773,0.0813,0.0691,0,0,0,0,0.078,0.0772,0.0754,0.0725,0.0693,0.0686,0.0695,0.0717,0.0761,0.0748,0.079,0.0781,0.0806,0.0723,0.078,0.078,0.078,0.078,0.078,0.0809,0.0771,0.0741,0.0699,0.0684,0.0674,0.0687,0.0724,0.0748,0.0779,0.079,0.0826,0.0738,0.0803,0.0803,0.0803,0.0803,0.0803,0.0803,0.0797,0.0765,0.0734,0.07,0.0679,0.0677,0.0699,0.0729,0.0788,0.0796,0.0822,0.0739,0.0804,0.0803,0.0803,0.0803,0.0803,0.0803,0.0803,0.0799,0.0777,0.0768,0.0724,0.0703,0.0691,0.0694,0.0747,0.0796,0.0817,0.0766,0.0839,0.0836,0.0856,0.0856,0.0857,0.0857,0.0857,0.0857,0.0804,0.0787,0.0779,0.0744,0.0716,0.0697,0.0715,0.0723,0.0784,0.075,0.0836,0.0845,0.0843,0.084,0.0859,0.0858,0.0858,0.0858,0.0858,0.0782,0.0807,0.0783,0.0764,0.0684,0.0646,0.068,0.0658,0.0684,0.0679,0.0723,0.0729,0.0717,0.0719,0.0711,0.0692,0.069,0.0689,0,0.0782,0.0786,0.0763,0.0712,0.0624,0.0596,0.0532,0.0541,0.0606,0.0595,0.0709,0.076,0.0763,0.0751,0.075,0.074,0,0,0,0.0767,0.0764,0.0735,0.0688,0.0571,0.0493,0.05,0.0482,0.0602,0.055,0.0646,0.0657,0.0735,0.0864,0.0862,0.0859,0.0854,0,0]},{"header":{"parameterUnit":"m.s-1","parameterCategory":2,"la1":30.2992,"la2":30.254,"lo1":-89.0895,"lo2":-89.0443,"dy":0.0025,"dx":0.0025,"nx":19,"ny":19,"refTime":"2026-04-02T03:00:00:Z","depth":"4","parameterNumber":3,"parameterNumberName":"V-component_of_CURRENTS"},"data":[0,0,0,0.0071,0.0071,0.011,0.0111,0.0213,0.0214,0,0,0,0,0,0,0,0,0,0,0,0.0062,0.0062,0.0071,0.0071,0.011,0.0111,0.0213,0.0214,0,0,0,0,0,0,0,0,0,0,0,0.0062,0.0062,0.0062,0.0071,0.011,0.0111,0.0212,0.0173,0,0,0,0,0,0,0,0,0,0,0.0129,0.0113,0.0062,0.0062,0.0072,0.011,0.0111,0.017,0.0175,0.0206,0,0.0208,0,0.0208,0.0221,0.0221,0,0,0,0.0083,0.0108,0.0113,0.0062,0.0072,0.011,0.0096,0.0173,0.0178,0.0213,0.0209,0.0212,0.0209,0.0221,0.0222,0.0321,0.0321,0,0,0.008,0.0078,0.0109,0.0116,0.0077,0.0095,0.0097,0.0176,0.0184,0.0209,0.0214,0.0211,0.0222,0.0223,0.0321,0.0321,0,0,0,0.0067,0.0077,0.0079,0.0113,0.0113,0.0095,0.0098,0.0181,0.018,0.0215,0.0212,0.0223,0.0224,0.032,0.0321,0.0327,0,0,0,0.0066,0.0068,0.0078,0.0079,0.0111,0.014,0.0102,0.0174,0.0183,0.0212,0.0223,0.0225,0.032,0.0321,0.0326,0.0327,0,0,0,0.0061,0.0067,0.0069,0.0078,0.0088,0.0139,0.0143,0.0176,0.0181,0.0221,0.0225,0.032,0.032,0.0325,0.0326,0.034,0,0,0,0.0062,0.0068,0.0069,0.0083,0.0088,0.0134,0.0142,0.0185,0.0221,0.0223,0.032,0.0321,0.0325,0.0325,0.0339,0.0297,0,0,0,0.0069,0.0069,0.0078,0.0079,0.0117,0.013,0.0187,0.0231,0.0242,0.0299,0.0301,0.0326,0.0326,0.034,0.0341,0,0,0,0,0.008,0.0085,0.0099,0.0119,0.0152,0.0195,0.0234,0.0251,0.0293,0.0263,0.034,0.0339,0.0348,0.0322,0.0324,0.0324,0.0324,0.0324,0.0324,0.0093,0.0105,0.013,0.0156,0.0193,0.0249,0.0279,0.0311,0.0325,0.0338,0.0354,0.0382,0.0356,0.0366,0.0366,0.0367,0.0367,0.0367,0.0367,0.0106,0.0119,0.0149,0.0173,0.0223,0.0275,0.0334,0.0343,0.038,0.0376,0.0384,0.0342,0.0368,0.0367,0.0367,0.0367,0.0367,0.0367,0.0367,0.0114,0.0121,0.0133,0.0174,0.0228,0.0287,0.0341,0.0376,0.0384,0.0395,0.0377,0.0391,0.0379,0.0405,0.0405,0.0405,0.0405,0.0405,0.0405,0.0114,0.0127,0.0142,0.0181,0.0211,0.0271,0.0347,0.0372,0.0399,0.0383,0.0403,0.0395,0.0394,0.0382,0.0407,0.0406,0.0406,0.0406,0.0406,0.0116,0.0125,0.0142,0.0164,0.0223,0.0264,0.0336,0.0375,0.0393,0.0387,0.0377,0.0378,0.0372,0.0372,0.0359,0.0377,0.0376,0.0376,0,0.0121,0.0125,0.0145,0.017,0.0213,0.0264,0.0299,0.0335,0.0351,0.0334,0.0381,0.0368,0.0369,0.0361,0.036,0.0344,0,0,0,0.0125,0.0129,0.0139,0.0159,0.0201,0.0256,0.0309,0.0309,0.0347,0.0358,0.0365,0.0368,0.04,0.041,0.0404,0.0403,0.0383,0,0]}]]